Regional Weather Roundup
Issued by NWS Little Rock, AR

Home | Current Version | Previous Version | Text Only | Print | Product List | Glossary On
Versions: 1 2 3 4 5 6 7 8 9 10 11 12 13 14 15 16 17 18 19 20 21 22 23 24 25 26 27 28 29 30 31 32 33 34 35 36 37 38 39 40 41 42 43 44 45 46 47 48 49 50
000
ASUS44 KLZK 222305
RWRLZK

WEATHER ROUNDUP FOR ARKANSAS
NATIONAL WEATHER SERVICE LITTLE ROCK AR
600 PM CDT TUE JUL 22 2014

NOTE: "FAIR" INDICATES FEW OR NO CLOUDS BELOW 12,000 FEET WITH NO
SIGNIFICANT WEATHER AND/OR OBSTRUCTIONS TO VISIBILITY.

ARZ001-003-010-029-230000-
NORTHWEST ARKANSAS

CITY           SKY/WX    TMP DP  RH WIND       PRES   REMARKS
FAYETTEVILLE   SUNNY     89  74  60 CALM      30.07F HX  98
FORT SMITH     SUNNY     91  71  51 SE5       30.03F HX  97
HARRISON       SUNNY     92  69  47 CALM      30.07F HX  97
BENTONVILLE    PTSUNNY   91  73  55 S3        30.09S HX 100
ROGERS         MOSUNNY   90  71  53 CALM      30.08F HX  96
SILOAM SPGS    MOSUNNY   90  72  55 W6        30.08S HX  96
HIGHFILL       PTSUNNY   89  75  63 W7        30.07F HX  99
SPRINGDALE     MOSUNNY   91  73  55 CALM      30.09F HX 100
$$

ARZ004-005-016-230000-
NORTH CENTRAL ARKANSAS

CITY           SKY/WX    TMP DP  RH WIND       PRES   REMARKS
BATESVILLE     SUNNY     88  68  51 S5        30.05S HX  91
FLIPPIN        SUNNY     88  70  55 S5        30.05F HX  92
MTN HOME       SUNNY     88  71  57 SE5       30.04F HX  94
$$

ARZ040-041-230000-
WEST CENTRAL ARKANSAS

CITY           SKY/WX    TMP DP  RH WIND       PRES   REMARKS
MENA           PTSUNNY   90  72  55 CALM      30.09S HX  96
MOUNT IDA      SUNNY     87  68  52 CALM      30.06S HX  90
$$

ARZ009-017-025-026-028-230000-
NORTHEAST ARKANSAS

CITY           SKY/WX    TMP DP  RH WIND       PRES   REMARKS
CORNING        LGT RAIN  86  68  54 SW7       30.03F HX  89
JONESBORO      SUNNY     86  68  54 SW8       30.03F HX  89
NEWPORT        SUNNY     89  71  55 SE8       30.05F HX  95
WALNUT RIDGE   SUNNY     88  57  35 S6        30.02F HX  86
BLYTHEVILLE    MOSUNNY   89  70  53 SW5       30.03F HX  94
$$

ARZ022-023-033-042-044-230000-
CENTRAL ARKANSAS

CITY           SKY/WX    TMP DP  RH WIND       PRES   REMARKS
LITTLE ROCK    MOSUNNY   88  65  46 CALM      30.05S HX  90
JACKSONVILLE   MOSUNNY   86  70  58 SE3       30.03F HX  90
SEARCY         SUNNY     89  71  55 W5        30.06F HX  95
HOT SPRINGS    SUNNY     87  66  49 CALM      30.06S HX  89
RUSSELLVILLE   MOSUNNY   88  69  53 CALM      30.04F HX  92
CLINTON        FAIR      90  72  55 SE5       30.05F HX  96
$$

ARZ036-230000-
EAST ARKANSAS

CITY           SKY/WX    TMP DP  RH WIND       PRES   REMARKS
WEST MEMPHIS   SUNNY     89  71  55 CALM      30.02F HX  95
$$

ARZ050-053-066-070-073-230000-
SOUTHWEST ARKANSAS

CITY           SKY/WX    TMP DP  RH WIND       PRES   REMARKS
ARKADELPHIA    FAIR      89  68  49 CALM      30.05S HX  92
CAMDEN         MOSUNNY   91  66  43 CALM      30.03S HX  94
TEXARKANA      SUNNY     88  67  49 CALM      30.04F HX  91
EL DORADO      SUNNY     88  68  51 NE6       30.04F HX  91
DE QUEEN       SUNNY     88  71  57 SE6       30.03S HX  94
$$

ARZ056-057-069-230000-
SOUTHEAST ARKANSAS

CITY           SKY/WX    TMP DP  RH WIND       PRES   REMARKS
PINE BLUFF     SUNNY     88  68  51 E5        30.04F HX  91
STUTTGART      CLOUDY    88  70  55 N5        30.06S HX  92
MONTICELLO     SUNNY     88  68  51 CALM      30.04S HX  91

$$




USA.gov is the U.S. government's official web portal to all federal, state and local government web resources and services.